Location: Znojmo
(48.8500°N, 16.0500°E)
Time: 15:45:54
(UTC+02:00)

ISS - Pass Details

Date: 01 April 2019
Orbit: 408 x 410 km, 51.6° (Epoch: 25 April)

Event Time Altitude Azimuth Distance (km) Brightness Sun altitude
Rises 20:09:45 0° 283° (WNW) 2,338 2.6 -7.8°
Reaches altitude 10° 20:11:53 10° 288° (WNW) 1,476 0.8 -8.2°
Maximum altitude 20:15:07 53° 7° (N) 512 -3.3 -8.7°
Enters shadow 20:18:09 11° 85° (E) 1,390 -1.7 -9.2°
